LANDSAT 8 (39084 NORAD) Tracking and Keplerian Element Data

This shows tracking and keplerian element data for the satellite.

Feedback or suggestion? Click here.




ElementValue
Catalog39084
NameLANDSAT 8
Epoch Orbit30678
Epoch Day323.1926278
Epoch Year2018
RAAN31.2303
Inclination98.2136
Eccentricity0.000109
Argument of Perigee84.9767
Mean Anonmoly275.1557
Mean Motion14.57112453
Decay Rate6.7E-07
L11 39084U 13008A 18323.19262780 .00000067 00000-0 24824-4 0 9995
L22 39084 98.2136 31.2303 0001090 84.9767 275.1557 14.57112453306787

Live tracking and technical data element details for LANDSAT 8 (NORAD 39084). LANDSAT 8 can be tracked NOW for your location showing map with azimuth and elevation plus other details from your city location.

Track the satellite on the map from your city or location and see movement details for azimuth, elevation, latitude, longitude, range, height, and movement on the map or in text.







IsCatalogInMostPopularTable: catalog: 39084, numindb: 121
Update: records affected: 1



GetName: 39084 LANDSAT 8

Hit Count: updated at: Mon, 19 Nov 2018 13:57:29 GMT